Weather History for Norfolk, NE

Change the Weather History Date:

Thursday, April 17, 2014

  Actual Average Record
Temperature  
Mean Temperature 42 °F 50 °F  
Max Temperature 53 °F 63 °F 91 °F (1994)
Min Temperature 30 °F 38 °F 14 °F (1907)
Degree Days  
Heating Degree Days 23 15  
Month to date heating degree days 333 308  
Since 1 July heating degree days 6627 6257  
Cooling Degree Days 0 0  
Month to date cooling degree days 0 0  
Year to date cooling degree days 0 0  
Moisture  
Dew Point 22 °F    
Average Humidity 52    
Maximum Humidity 78    
Minimum Humidity 26    
Precipitation  
Precipitation 0.00 in 0.09 in 2.85 in (1908)
Month to date precipitation 1.46 1.38  
Year to date precipitation 2.39 4.50  
Snow  
Snow 0.00 in 0.00 in - ()
Month to date snowfall 4.5 1.8  
Since 1 July snowfall 19.9 29.7  
Snow Depth 0.00 in    
Sea Level Pressure  
Sea Level Pressure 30.28 in    
Wind  
Wind Speed 9 mph (NNE)    
Max Wind Speed 23 mph    
Max Gust Speed 26 mph    
Visibility 10 miles    
Events      
T = Trace of Precipitation, MM = Missing Value Source: NWS Daily Summary

Daily Weather History Graph

Daily Weather History Graph

Search for Another Location

Airport:

Trip Planner

Search our weather history database for the weather conditions in past years. The results will help you decide how hot, cold, wet, or windy it might be!

Date:

Astronomy

Apr. 17, 2014 Rise Set
Actual Time 6:46 AM CDT 8:13 PM CDT
Civil Twilight 6:16 AM CDT 8:42 PM CDT
Nautical Twilight 5:41 AM CDT 9:17 PM CDT
Astronomical Twilight 5:04 AM CDT 9:55 PM CDT
Moon 11:02 PM CDT (4/17) 8:17 AM CDT (4/17)
Length of Visible Light 14h 25m
Length of Day
13h 27m
Waning Gibbous, 93% of the Moon is Illuminated
Apr 17
Waning Gibbous
Apr 22
Last Quarter
Apr 29
New
May 6
First Quarter
May 14
Full

Hourly Weather History & Observations

Time (CDT) Temp. Windchill Dew Point Humidity Pressure Visibility Wind Dir Wind Speed Gust Speed Precip Events Conditions
12:56 AM 32.0 °F 20.1 °F 24.1 °F 73% 30.20 in 10.0 mi NNW 19.6 mph 27.6 mph N/A   Overcast
1:56 AM 30.9 °F 19.4 °F 24.1 °F 76% 30.21 in 10.0 mi North 17.3 mph - N/A   Overcast
2:56 AM 30.9 °F 20.7 °F 23.0 °F 72% 30.23 in 10.0 mi North 13.8 mph - N/A   Overcast
3:56 AM 30.9 °F 19.4 °F 23.0 °F 72% 30.25 in 10.0 mi NNW 17.3 mph - N/A   Overcast
4:56 AM 30.0 °F 18.3 °F 21.9 °F 72% 30.27 in 10.0 mi NNW 17.3 mph - N/A   Overcast
5:56 AM 30.9 °F 21.7 °F 21.9 °F 69% 30.29 in 10.0 mi NW 11.5 mph - N/A   Overcast
6:56 AM 30.0 °F 20.0 °F 21.9 °F 72% 30.30 in 10.0 mi NNW 12.7 mph - N/A   Overcast
7:29 AM 30.0 °F 20.0 °F 21.0 °F 69% 30.27 in 10.0 mi NNW 12.7 mph - N/A   Scattered Clouds
7:56 AM 30.9 °F 22.2 °F 21.9 °F 69% 30.34 in 10.0 mi NNW 10.4 mph - N/A   Clear
8:56 AM 32.0 °F 22.5 °F 21.9 °F 66% 30.36 in 10.0 mi North 12.7 mph - N/A   Clear
9:56 AM 35.1 °F 26.4 °F 23.0 °F 61% 30.36 in 10.0 mi North 12.7 mph - N/A   Clear
12:56 PM 45.0 °F - 21.9 °F 40% 30.33 in 10.0 mi Calm Calm - N/A   Clear
1:56 PM 46.0 °F - 21.0 °F 37% 30.32 in 10.0 mi Calm Calm - N/A   Clear
2:56 PM 50.0 °F - 21.9 °F 33% 30.29 in 10.0 mi Variable 6.9 mph - N/A   Clear
3:56 PM 51.1 °F - 21.0 °F 31% 30.27 in 10.0 mi Variable 3.5 mph - N/A   Clear
4:56 PM 53.1 °F - 19.9 °F 27% 30.26 in 10.0 mi ESE 9.2 mph - N/A   Clear
5:56 PM 52.0 °F - 19.9 °F 28% 30.26 in 10.0 mi SSE 4.6 mph - N/A   Clear
6:56 PM 52.0 °F - 21.0 °F 30% 30.25 in 10.0 mi SSE 4.6 mph - N/A   Mostly Cloudy
7:56 PM 51.1 °F - 21.9 °F 32% 30.25 in 10.0 mi SE 5.8 mph - N/A   Overcast
8:56 PM 45.0 °F 42.6 °F 23.0 °F 42% 30.26 in 10.0 mi SE 4.6 mph - N/A   Scattered Clouds
9:56 PM 39.9 °F 35.1 °F 24.1 °F 53% 30.26 in 10.0 mi ESE 6.9 mph - N/A   Clear
10:56 PM 37.9 °F 32.7 °F 24.1 °F 57% 30.26 in 10.0 mi SE 6.9 mph - N/A   Clear
11:56 PM 37.0 °F 31.6 °F 24.1 °F 59% 30.26 in 10.0 mi SE 6.9 mph - N/A   Clear